Location: Case Ragazzi
(44.8992°N, 12.2347°E)
Time: 00:29:53
(UTC+00:00)

Daily predictions for brighter satellites

Satellite Brightness Start Highest point End
(mag) Time Altitude Azimuth Time Altitude Azimuth Time Altitude Azimuth
SL-16 R/B 4.1 00:12:19 30° NNE 00:12:19 30° NNE 00:15:32 10° N
CZ-2D R/B 4.4 00:19:03 10° NNE 00:20:45 20° NE 00:20:45 20° NE
Cosmos 2297 Rocket 4.3 00:26:26 10° N 00:28:49 22° N 00:28:49 22° N
Resurs 1-4 Rocket 4.2 00:32:58 10° NNE 00:34:54 23° NNE 00:34:54 23° NNE
Cosmos 2369 Rocket 4.5 00:41:05 17° NNW 00:41:05 17° NNW 00:43:01 10° N
USA 267 4.2 00:50:34 10° ENE 00:54:57 39° E 00:54:57 39° E
Cosmos 2227 Rocket 4.0 01:23:11 10° NNW 01:25:13 23° NNW 01:25:13 23° NNW
Lacrosse 5 3.5 01:32:48 29° E 01:32:48 29° E 01:35:39 10° ENE
USA 234 3.8 01:25:43 10° ESE 01:32:02 55° NNE 01:37:44 13° NW
ADEOS II 3.0 01:34:49 10° NNE 01:38:27 45° NNE 01:38:27 45° NNE
IDEFIX/ARIANE 42P 3.5 01:48:04 10° NNE 01:53:05 42° E 01:53:40 40° ESE
SL-16 R/B 4.4 01:57:25 17° NW 01:57:25 17° NW 01:58:54 10° NNW
Cosmos 2369 4.1 01:54:42 56° ESE 01:54:44 56° ESE 02:00:21 10° NNE
IRS-1C 4.4 01:51:13 10° NNE 01:55:57 67° NE 01:55:57 67° NE
Cosmos 1151 Rocket 4.4 02:00:38 36° NNE 02:00:38 36° NNE 02:03:19 10° NNE
ARIANE 5 R/B 2.8 01:57:05 10° NNE 02:01:51 63° E 02:01:51 63° E
IRS-1D 4.3 01:57:55 10° N 02:01:47 44° NNW 02:01:47 44° NNW
CZ-2D R/B 3.8 01:59:28 10° N 02:02:04 23° NNW 02:02:04 23° NNW
ATLAS 5 CENTAUR R/B 3.6 02:07:56 21° NNW 02:07:56 21° NNW 02:10:44 10° NNE
Resurs 1-4 Rocket 3.9 02:13:40 10° NNW 02:15:58 19° NW 02:15:58 19° NW
Cosmos 2360 4.2 02:18:34 65° SSE 02:19:18 75° ESE 02:25:03 10° NNE
Cosmos 2082 3.5 02:14:26 10° NNW 02:20:09 81° WSW 02:20:23 78° SSW
USA 305 3.5 02:22:42 55° ENE 02:22:42 55° ENE 02:26:06 10° NE
Meteor 1-26 Rocket 4.1 02:24:04 58° SSE 02:25:08 78° E 02:30:33 10° NNE
USA 306 3.3 02:26:37 61° ENE 02:26:37 61° ENE 02:30:10 10° NE
X-37B 2.9 02:29:08 24° E 02:29:08 24° E 02:30:32 10° E
CZ-2D R/B 3.7 02:25:00 10° NNE 02:28:45 70° NNE 02:28:45 70° NNE
SJ 16-02 3.5 02:26:30 10° N 02:30:14 26° ENE 02:33:57 10° ESE
Cosmos 389 Rocket 3.5 02:32:19 44° ENE 02:32:19 44° ENE 02:35:09 10° NNE
Meteor 1-25 Rocket 4.1 02:26:14 10° NNW 02:32:02 70° W 02:33:00 59° SSW
Cosmos 1697 Rocket 2.6 02:32:33 64° W 02:33:01 67° WNW 02:38:38 10° NNE
ASTEX 1 3.3 02:30:21 10° N 02:35:23 89° E 02:36:22 59° S
IRS-P3 4.4 02:30:32 10° N 02:35:28 48° WNW 02:35:28 48° WNW
H-2A R/B 2.9 02:31:51 10° SE 02:36:03 51° ENE 02:40:22 10° N
Cosmos 1980 Rocket 2.3 02:35:19 45° S 02:37:05 74° ESE 02:42:45 10° NNE
CZ-2C R/B 3.9 02:34:41 10° NNE 02:39:23 36° E 02:44:07 10° SSE
ERS-2 4.2 02:36:23 10° SE 02:39:33 28° ENE 02:42:44 10° N
Iridium 2 3.9 02:39:48 66° ENE 02:39:48 66° ENE 02:43:20 10° N
USA 267 3.5 02:33:36 10° NE 02:40:00 58° NNW 02:42:17 39° W
Cosmos 2263 Rocket 3.2 02:40:54 10° NNW 02:46:23 48° ENE 02:51:51 10° SE
SL-8 R/B 3.8 02:46:01 46° NW 02:47:19 69° NNE 02:52:05 10° E
Meteor 1-14 Rocket 4.1 02:43:08 10° N 02:48:48 88° W 02:54:21 10° S
SL-16 R/B 4.0 02:45:39 10° SSE 02:50:23 28° ESE 02:55:09 10° NE
USA 307 2.9 02:52:25 61° WNW 02:52:45 64° NNW 02:56:59 10° NE
Cosmos 1812 3.8 02:52:18 17° SSE 02:54:53 44° E 02:58:35 10° NNE
Cosmos 1821 Rocket 4.3 02:49:20 10° NNW 02:55:15 44° W 02:56:29 39° WSW
USA 308 3.0 02:55:23 56° WNW 02:55:51 61° NNW 03:00:05 10° NE
Cosmos 1470 Rocket 4.4 02:52:24 10° NNW 02:55:25 35° NW 02:55:25 35° NW
Spot 4 Rocket 4.1 02:53:15 10° N 02:58:19 59° WNW 02:59:44 43° SW
Cosmos 972 4.3 02:59:29 35° SSW 03:01:38 82° WNW 03:06:34 10° NNE
Cosmos 1500 3.5 02:57:49 10° N 03:01:40 66° E 03:05:27 10° SSE
Landsat 5 3.5 02:59:33 10° SSE 03:04:04 81° WSW 03:08:36 10° NNW
Meteor 2-6 Rocket 4.4 02:59:52 10° S 03:05:27 75° E 03:11:16 10° NNE
Cosmos 1666 4.4 03:03:58 10° N 03:07:30 34° ENE 03:10:59 10° SE
Meteor 1-5 Rocket 4.2 03:02:55 10° N 03:08:15 74° ENE 03:13:38 10° SSE
Cosmos 1782 3.4 03:10:11 39° WNW 03:10:11 39° WNW 03:13:49 10° N
Cosmos 1934 Rocket 4.0 03:04:28 10° NNW 03:10:22 56° W 03:16:16 10° SSW
ERBS 3.6 03:09:57 27° S 03:11:01 34° SE 03:14:07 10° ENE
Cosmos 1777 Rocket 4.4 03:06:24 10° NW 03:11:11 37° WSW 03:12:06 34° SW
IRIDIUM 104 4.5 03:07:13 10° N 03:12:28 76° E 03:17:40 10° S
Cosmos 1238 Rocket 4.0 03:06:10 10° NNW 03:12:41 61° W 03:18:42 10° S
Lacrosse 5 2.4 03:11:59 32° W 03:13:51 47° NNW 03:18:46 10° NE
ADEOS Rocket 3.5 03:07:43 10° SSE 03:14:35 69° ENE 03:20:46 10° N
CZ-4B R/B 3.1 03:12:03 10° SE 03:14:53 33° ENE 03:17:49 10° N
USA 234 3.3 03:08:41 10° SSE 03:15:03 55° SW 03:21:28 10° WNW
Cosmos 1898 Rocket 4.5 03:10:03 10° NNW 03:15:10 50° ENE 03:20:17 10° SE
Cosmos 1515 Rocket 4.2 03:15:07 35° W 03:15:33 36° WNW 03:19:41 10° N
CZ-2C R/B 3.1 03:14:26 10° N 03:18:01 43° WNW 03:18:32 40° W
ADEOS II 3.8 03:16:06 10° NNW 03:19:07 16° WNW 03:19:23 16° WNW
IRIDIUM 114 4.3 03:16:22 10° N 03:21:37 90° WSW 03:26:50 10° S
USA 276 3.4 03:21:37 27° NW 03:22:35 33° N 03:25:34 10° ENE
USA 32 4.5 03:20:32 10° N 03:25:47 66° E 03:30:59 10° SSE
Cosmos 44 3.2 03:24:49 30° WSW 03:26:51 61° NW 03:31:28 10° NNE
ADEOS 4.3 03:23:22 10° NNE 03:28:30 55° E 03:33:35 10° S
MSX 4.2 03:23:18 10° N 03:28:47 46° WNW 03:32:39 19° SW
Cosmos 1707 Rocket 4.1 03:24:40 10° S 03:28:54 58° E 03:33:10 10° NNE
Cosmos 1356 4.3 03:25:56 10° NNW 03:28:27 30° WNW 03:28:27 30° WNW
Cosmos 921 Rocket 2.8 03:27:48 22° SSW 03:30:24 67° WNW 03:34:35 10° NNE
IRIDIUM 103 4.2 03:25:31 10° N 03:30:45 75° W 03:35:57 10° S
Cosmos 2278 4.2 03:28:10 25° WSW 03:31:03 42° WNW 03:36:28 10° NNE
IDEFIX/ARIANE 42P 3.5 03:28:00 10° N 03:32:28 29° WNW 03:34:28 22° W
Cosmos 1605 Rocket 4.1 03:26:56 10° NNW 03:33:11 59° W 03:39:26 10° S
Meteor 1-11 Rocket 3.9 03:27:35 10° N 03:33:25 80° ENE 03:39:06 10° SSE
Cosmos 2228 Rocket 3.4 03:31:12 22° SW 03:33:40 44° WNW 03:37:55 10° N
CZ-3B R/B 3.8 03:32:06 15° WNW 03:34:51 34° N 03:44:52 10° ENE
SAR-Lupe-4 4.3 03:32:59 10° SSE 03:36:30 57° ENE 03:40:03 10° N
ARIANE 5 R/B 4.0 03:37:18 10° NNW 03:40:46 19° WNW 03:42:10 17° W
CZ-4C R/B 4.1 03:42:40 23° WSW 03:43:01 24° W 03:45:59 10° NW
Cosmos 1937 Rocket 4.0 03:39:12 10° NNW 03:44:20 63° ENE 03:49:25 10° SSE
Meteor 1-27 Rocket 3.9 03:41:01 10° S 03:46:58 83° E 03:52:55 10° NNE
ALOS 2.8 03:43:18 10° NNE 03:47:57 61° E 03:52:32 10° S
Cosmos 1733 Rocket 3.8 03:43:52 10° N 03:48:10 57° ENE 03:52:25 10° SSE
SAR-Lupe-1 4.2 03:45:15 10° SSE 03:48:47 78° ENE 03:52:23 10° N
IRIDIUM 106 4.5 03:43:58 10° NNW 03:49:02 51° W 03:54:03 10° SSW
Cosmos 1536 2.9 03:47:50 10° N 03:51:56 84° E 03:56:00 10° S
Cosmos 1869 Rocket 3.9 03:48:55 10° NNW 03:52:58 39° W 03:56:59 10° SSW
GENESIS II 4.4 03:51:47 15° SW 03:55:02 61° NW 03:59:03 10° NNE
Cosmos 841 Rocket 4.4 03:50:49 10° S 03:55:50 52° ESE 04:00:57 10° NNE
Meteor 1-4 Rocket 2.8 03:52:37 10° SSW 03:55:57 44° WNW 03:59:19 10° N
Cosmos 1484 Rocket 3.0 03:52:45 10° NNE 03:56:45 79° ESE 04:00:45 10° S
USA 305 4.1 03:58:51 12° WNW 04:02:13 31° NNW 04:06:02 10° NE
Cosmos 1862 Rocket 4.0 03:58:20 10° S 04:02:41 66° E 04:07:02 10° NNE
Cosmos 1689 Rocket 2.7 04:00:23 10° SSE 04:03:17 59° ENE 04:06:13 10° N
X-37B 0.5 04:01:25 15° W 04:03:59 81° S 04:07:10 10° ESE
Cosmos 1727 Rocket 4.2 04:00:03 10° SSW 04:06:14 54° WNW 04:12:27 10° N
USA 306 4.2 04:02:46 11° WNW 04:06:20 30° NNW 04:10:06 10° NE
Cosmos 1763 Rocket 3.5 04:01:09 10° SSW 04:06:27 69° WNW 04:11:46 10° NNE
Meteor 1-31 Rocket 2.8 04:03:41 10° NNE 04:07:31 86° ESE 04:11:21 10° SSW
Cosmos 2100 Rocket 4.0 04:01:29 10° N 04:07:52 78° W 04:14:13 10° S
SJ 16-02 2.0 04:04:55 10° NW 04:08:49 32° W 04:12:43 10° SSW
PSLV R/B 4.5 04:06:18 10° N 04:09:53 27° WNW 04:13:26 10° SW
Cosmos 1802 Rocket 4.1 04:04:00 10° N 04:10:13 84° E 04:16:29 10° S
Cosmos 2360 Rocket 3.0 04:05:34 10° S 04:11:05 55° ESE 04:16:37 10° NNE
Cosmos 1437 Rocket 4.1 04:07:44 10° SSE 04:11:18 42° E 04:14:55 10° NNE
H-2A R/B 3.6 04:09:30 10° SW 04:12:19 17° W 04:15:11 10° NW
ERS-2 3.4 04:10:17 10° SW 04:13:07 21° W 04:15:56 10° NW
CZ-2C R/B 3.3 04:13:01 10° N 04:17:30 32° WNW 04:22:03 10° SW
Meteor PRIRODA 4.4 04:16:05 10° NNE 04:19:43 56° E 04:23:17 10° S
NOSS 3-4 (A) 4.1 04:13:14 10° NW 04:20:17 82° NE 04:28:06 10° SE
NOSS 3-4 (C) 4.1 04:13:21 10° NW 04:20:23 82° NE 04:28:13 10° SE
Gbstr 26 Del rocket 4.4 04:13:14 10° WNW 04:21:11 73° SW 04:28:03 10° SE
Cosmos 1980 Rocket 3.6 04:17:25 10° W 04:21:41 21° NW 04:25:59 10° N
METEOR-M 4.1 04:16:39 10° NNE 04:22:02 81° WNW 04:27:22 10° SSW
USA 267 4.4 04:16:36 10° NE 04:22:16 33° N 04:27:57 10° WNW
FALCON 9 DEB 3.7 04:19:01 10° SW 04:22:23 57° SE 04:25:46 10° ENE
FENGYUN 3A 3.7 04:20:01 10° N 04:25:21 64° WNW 04:30:40 10° SSW
Cosmos 2322 Rocket 2.3 04:20:49 10° SW 04:26:26 64° WNW 04:32:08 10° NNE
Cosmos 1459 Rocket 4.0 04:23:36 10° NNW 04:29:34 57° W 04:35:26 10° S
SJ-12 4.0 04:25:36 10° NNE 04:29:45 87° WNW 04:33:53 10° SSW
SL-8 R/B 4.1 04:25:14 10° WNW 04:29:46 45° SSW 04:34:18 10° SE
Cosmos 2263 Rocket 3.0 04:25:19 10° NW 04:30:01 28° WSW 04:34:45 10° SSW
CZ-4C R/B 4.3 04:23:58 10° NNW 04:30:29 39° NE 04:37:56 10° ESE
Cosmos 2123 Rocket 4.2 04:24:47 10° S 04:31:02 85° E 04:37:21 10° N
Cosmos 2237 4.4 04:25:35 10° SSW 04:31:18 86° ESE 04:37:03 10° NNE
